Powrót do katalogu

STARLINK-37210

AktywnyŁącznośćVLEO
NORAD 68557·PAYLOAD·🇺🇸 United States

Wystrzelony Apr 2, 2026 z Cape Canaveral Space Force Station

Loading…

Następne Przeloty (najbliższe 24 godziny)

TLE

ŚwieżeSource: CelesTrak SupGP

Epoka: Sep 14, 2026, 21:17 UTC

1 68557C 26070R   26257.88729167  .00017624  00000+0  52053-3 0  2570
2 68557  53.1578 199.8630 0001328  90.2965  25.6949 15.34392119    17

Śledź STARLINK-37210 w czasie rzeczywistym z AllMySat

Download on the App Store